FDX1402 KMEM-KEWR

Flight info

Callsign FDX1402
Flight time 1h 43m
Altitude 35000
Route GOETZ7 DIYAB HITMN Q34 GVE PHLBO4
Aircraft B77L/H-SDE1E2E3FGHIJ2J3J4J5M1RWXY/LB1D1

Departure

Time 2026-05-06 22:46
Airport Memphis International Airport (KMEM)

Arrival

Time 2026-05-07 00:30
Airport Newark Liberty International Airport (KEWR)
Time Latitude Longitude Altitude Speed Heading
2026-05-06 22:21 35.05978 -89.95974 331 ft 0 kts 181°
2026-05-06 22:22 35.05972 -89.95974 332 ft 0 kts 181°
2026-05-06 22:35 35.05979 -89.95974 335 ft 4 kts 181°
2026-05-06 22:35 35.06005 -89.95973 333 ft 3 kts 181°
2026-05-06 22:35 35.06025 -89.95971 330 ft 4 kts 216°
2026-05-06 22:36 35.06034 -89.95950 330 ft 3 kts 272°
2026-05-06 22:36 35.06033 -89.95919 330 ft 2 kts 272°
2026-05-06 22:36 35.06033 -89.95918 330 ft 0 kts 272°
2026-05-06 22:38 35.06034 -89.95973 331 ft 14 kts 271°
2026-05-06 22:38 35.06038 -89.96099 331 ft 15 kts 272°
2026-05-06 22:39 35.06042 -89.96261 335 ft 21 kts 272°
2026-05-06 22:39 35.06046 -89.96439 335 ft 21 kts 265°
2026-05-06 22:39 35.05945 -89.96557 331 ft 21 kts 221°
2026-05-06 22:39 35.05921 -89.96725 331 ft 21 kts 271°
2026-05-06 22:40 35.05901 -89.96893 330 ft 20 kts 220°
2026-05-06 22:40 35.05761 -89.96924 329 ft 21 kts 189°
2026-05-06 22:40 35.05614 -89.96954 332 ft 21 kts 189°
2026-05-06 22:40 35.05463 -89.96984 331 ft 26 kts 188°
2026-05-06 22:41 35.05083 -89.97055 330 ft 28 kts 188°
2026-05-06 22:41 35.04891 -89.97069 333 ft 28 kts 179°
2026-05-06 22:41 35.04698 -89.97064 332 ft 28 kts 179°
2026-05-06 22:42 35.04505 -89.97060 332 ft 28 kts 180°
2026-05-06 22:42 35.04316 -89.97097 332 ft 28 kts 188°
2026-05-06 22:42 35.04123 -89.97097 332 ft 28 kts 179°
2026-05-06 22:42 35.03930 -89.97092 332 ft 28 kts 179°
2026-05-06 22:43 35.03738 -89.97091 332 ft 28 kts 179°
2026-05-06 22:43 35.03546 -89.97086 333 ft 28 kts 179°
2026-05-06 22:43 35.03353 -89.97082 333 ft 28 kts 179°
2026-05-06 22:43 35.03161 -89.97079 333 ft 28 kts 179°
2026-05-06 22:44 35.02968 -89.97075 332 ft 28 kts 179°
2026-05-06 22:44 35.02779 -89.97036 332 ft 28 kts 167°
2026-05-06 22:44 35.02652 -89.97022 332 ft 28 kts 178°
2026-05-06 22:44 35.02461 -89.97027 332 ft 25 kts 197°
2026-05-06 22:45 35.02420 -89.97171 335 ft 19 kts 268°
2026-05-06 22:45 35.02458 -89.97245 331 ft 12 kts 352°
2026-05-06 22:45 35.02655 -89.97250 331 ft 55 kts 360°
2026-05-06 22:45 35.03068 -89.97256 332 ft 119 kts 359°
2026-05-06 22:46 35.04109 -89.97306 581 ft 164 kts 356°
2026-05-06 22:46 35.05196 -89.97403 1564 ft 154 kts 353°
2026-05-06 22:46 35.06252 -89.97532 2544 ft 152 kts 355°
2026-05-06 22:46 35.07364 -89.97610 3172 ft 175 kts
2026-05-06 22:47 35.08603 -89.97164 3482 ft 207 kts 31°
2026-05-06 22:47 35.09703 -89.95818 3696 ft 247 kts 59°
2026-05-06 22:47 35.10252 -89.93677 4332 ft 277 kts 75°
2026-05-06 22:47 35.10691 -89.91323 5239 ft 291 kts 72°
2026-05-06 22:48 35.11221 -89.88913 6203 ft 299 kts 72°
2026-05-06 22:48 35.11759 -89.86420 7264 ft 305 kts 73°
2026-05-06 22:48 35.12276 -89.83891 8425 ft 311 kts 75°
2026-05-06 22:48 35.12855 -89.81327 9388 ft 316 kts 73°
2026-05-06 22:49 35.13422 -89.78667 10247 ft 329 kts 77°
2026-05-06 22:49 35.13994 -89.75851 10774 ft 359 kts 76°
2026-05-06 22:49 35.14648 -89.72739 11161 ft 392 kts 75°
2026-05-06 22:49 35.15405 -89.69479 12028 ft 405 kts 74°
2026-05-06 22:50 35.16157 -89.66109 13021 ft 419 kts 75°
2026-05-06 22:50 35.16882 -89.62657 14163 ft 430 kts 76°
2026-05-06 22:50 35.17603 -89.59056 15200 ft 443 kts 76°
2026-05-06 22:50 35.18413 -89.55383 16209 ft 452 kts 74°
2026-05-06 22:51 35.19233 -89.51634 17075 ft 458 kts 77°
2026-05-06 22:51 35.19889 -89.47760 17952 ft 470 kts 84°
2026-05-06 22:51 35.20265 -89.43740 18889 ft 479 kts 87°
2026-05-06 22:51 35.20527 -89.39665 20001 ft 482 kts 88°
2026-05-06 22:52 35.20743 -89.35563 21209 ft 485 kts 88°
2026-05-06 22:52 35.20970 -89.31426 22272 ft 490 kts 87°
2026-05-06 22:52 35.21236 -89.27240 23183 ft 498 kts 86°
2026-05-06 22:52 35.21651 -89.22997 24004 ft 507 kts 81°
2026-05-06 22:53 35.22387 -89.18744 24696 ft 517 kts 73°
2026-05-06 22:53 35.23480 -89.14526 25396 ft 525 kts 70°
2026-05-06 22:53 35.24739 -89.10299 26126 ft 533 kts 66°
2026-05-06 22:53 35.26260 -89.06129 26792 ft 539 kts 62°
2026-05-06 22:54 35.27887 -89.01958 27432 ft 548 kts 61°
2026-05-06 22:54 35.29557 -88.97707 28146 ft 556 kts 61°
2026-05-06 22:54 35.31229 -88.93423 28989 ft 559 kts 61°
2026-05-06 22:54 35.32871 -88.89171 29984 ft 560 kts 61°
2026-05-06 22:55 35.34527 -88.84844 30836 ft 560 kts 62°
2026-05-06 22:55 35.36168 -88.80523 31727 ft 559 kts 62°
2026-05-06 22:55 35.37804 -88.76200 32598 ft 558 kts 62°
2026-05-06 22:55 35.39431 -88.71891 33431 ft 557 kts 62°
2026-05-06 22:56 35.41058 -88.67576 34149 ft 559 kts 62°
2026-05-06 22:56 35.42690 -88.63246 34751 ft 561 kts 62°
2026-05-06 22:56 35.44336 -88.58876 35077 ft 569 kts 62°
2026-05-06 22:56 35.46018 -88.54411 35038 ft 584 kts 62°
2026-05-06 22:57 35.47732 -88.49841 35046 ft 597 kts 62°
2026-05-06 22:57 35.49484 -88.45154 35077 ft 610 kts 62°
2026-05-06 22:57 35.51267 -88.40375 35051 ft 621 kts 62°
2026-05-06 22:58 35.54887 -88.30642 35032 ft 628 kts 62°
2026-05-06 22:58 35.58508 -88.20888 35025 ft 627 kts 62°
2026-05-06 22:59 35.62128 -88.11130 35023 ft 627 kts 62°
2026-05-06 22:59 35.65716 -88.01431 35023 ft 626 kts 62°
2026-05-06 23:00 35.69315 -87.91674 35025 ft 626 kts 62°
2026-05-06 23:00 35.72903 -87.81908 35023 ft 626 kts 62°
2026-05-06 23:01 35.76487 -87.72128 35038 ft 627 kts 62°
2026-05-06 23:01 35.80063 -87.62335 35027 ft 627 kts 62°
2026-05-06 23:02 35.83630 -87.52534 35031 ft 626 kts 62°
2026-05-06 23:02 35.87189 -87.42723 35031 ft 626 kts 62°
2026-05-06 23:03 35.90716 -87.32973 35029 ft 626 kts 62°
2026-05-06 23:03 35.94251 -87.23164 35019 ft 625 kts 62°
2026-05-06 23:04 35.97768 -87.13375 35022 ft 623 kts 62°
2026-05-06 23:04 36.01275 -87.03583 35013 ft 623 kts 62°
2026-05-06 23:05 36.04766 -86.93798 35001 ft 622 kts 62°
2026-05-06 23:05 36.08246 -86.84003 35007 ft 621 kts 62°
2026-05-06 23:06 36.11705 -86.74210 35029 ft 621 kts 62°
2026-05-06 23:06 36.15120 -86.64468 35029 ft 622 kts 63°
2026-05-06 23:07 36.18383 -86.54544 35006 ft 623 kts 65°
2026-05-06 23:07 36.21571 -86.44534 35070 ft 624 kts 65°
2026-05-06 23:08 36.24766 -86.34528 35046 ft 624 kts 65°
2026-05-06 23:08 36.27973 -86.24540 35011 ft 624 kts 64°
2026-05-06 23:09 36.31184 -86.14528 34988 ft 624 kts 65°
2026-05-06 23:09 36.34376 -86.04533 34998 ft 623 kts 65°
2026-05-06 23:10 36.37557 -85.94525 35000 ft 623 kts 65°
2026-05-06 23:10 36.40707 -85.84578 35003 ft 623 kts 65°
2026-05-06 23:11 36.43867 -85.74558 35053 ft 623 kts 65°
2026-05-06 23:11 36.47031 -85.64510 34998 ft 625 kts 65°
2026-05-06 23:12 36.50184 -85.54442 34995 ft 625 kts 65°
2026-05-06 23:12 36.53329 -85.44358 34991 ft 625 kts 65°
2026-05-06 23:13 36.56462 -85.34272 34976 ft 624 kts 65°
2026-05-06 23:13 36.59559 -85.24232 34983 ft 623 kts 65°
2026-05-06 23:14 36.62670 -85.14166 34984 ft 622 kts 65°
2026-05-06 23:14 36.65799 -85.04108 35034 ft 623 kts 65°
2026-05-06 23:15 36.68909 -84.94012 35022 ft 624 kts 65°
2026-05-06 23:15 36.71972 -84.83965 35037 ft 625 kts 65°
2026-05-06 23:16 36.75052 -84.73812 35029 ft 624 kts 65°
2026-05-06 23:16 36.78112 -84.63671 34998 ft 624 kts 65°
2026-05-06 23:17 36.81179 -84.53546 34977 ft 624 kts 65°
2026-05-06 23:17 36.84261 -84.43435 34977 ft 623 kts 65°
2026-05-06 23:18 36.87316 -84.33315 35018 ft 623 kts 65°
2026-05-06 23:18 36.90352 -84.23170 35006 ft 623 kts 65°
2026-05-06 23:19 36.93347 -84.13081 34998 ft 623 kts 65°
2026-05-06 23:19 36.96373 -84.02908 35004 ft 623 kts 65°
2026-05-06 23:20 36.99403 -83.92759 34997 ft 623 kts 65°
2026-05-06 23:20 37.02414 -83.82589 34978 ft 622 kts 65°
2026-05-06 23:21 37.05394 -83.72416 34967 ft 622 kts 65°
2026-05-06 23:21 37.08336 -83.62297 34990 ft 622 kts 66°
2026-05-06 23:22 37.11318 -83.52103 34951 ft 623 kts 66°
2026-05-06 23:22 37.14277 -83.41879 34950 ft 622 kts 66°
2026-05-06 23:23 37.17214 -83.31687 34971 ft 621 kts 66°
2026-05-06 23:23 37.20143 -83.21508 34964 ft 620 kts 66°
2026-05-06 23:24 37.23032 -83.11375 34954 ft 621 kts 66°
2026-05-06 23:24 37.25941 -83.01182 34951 ft 620 kts 66°
2026-05-06 23:25 37.28875 -82.90979 34973 ft 621 kts 65°
2026-05-06 23:25 37.31790 -82.80774 34963 ft 620 kts 66°
2026-05-06 23:26 37.34682 -82.70568 34953 ft 620 kts 66°
2026-05-06 23:26 37.37558 -82.60340 34985 ft 620 kts 66°
2026-05-06 23:27 37.40420 -82.50103 34984 ft 621 kts 66°
2026-05-06 23:27 37.43283 -82.39845 34960 ft 621 kts 66°
2026-05-06 23:28 37.46119 -82.29650 34935 ft 620 kts 66°
2026-05-06 23:28 37.48953 -82.19378 34957 ft 620 kts 66°
2026-05-06 23:29 37.51797 -82.09105 34956 ft 620 kts 66°
2026-05-06 23:29 37.54651 -81.98856 34951 ft 620 kts 66°
2026-05-06 23:30 37.57463 -81.88599 34958 ft 619 kts 67°
2026-05-06 23:30 37.60269 -81.78321 34962 ft 619 kts 66°
2026-05-06 23:31 37.63071 -81.68110 34946 ft 619 kts 66°
2026-05-06 23:31 37.65868 -81.57827 35001 ft 620 kts 67°
2026-05-06 23:32 37.68641 -81.47528 34946 ft 619 kts 67°
2026-05-06 23:32 37.71391 -81.37237 34960 ft 618 kts 67°
2026-05-06 23:33 37.74126 -81.26941 34952 ft 618 kts 67°
2026-05-06 23:33 37.76397 -81.18376 34959 ft 617 kts 69°
2026-05-06 23:34 37.78601 -81.06059 34966 ft 620 kts 82°
2026-05-06 23:34 37.79115 -80.96940 34932 ft 622 kts 86°
2026-05-06 23:35 37.79622 -80.86061 34927 ft 616 kts 85°
2026-05-06 23:35 37.80526 -80.75279 34919 ft 619 kts 82°
2026-05-06 23:36 37.81284 -80.64463 34928 ft 623 kts 85°
2026-05-06 23:36 37.81871 -80.53517 34947 ft 625 kts 85°
2026-05-06 23:37 37.82555 -80.42567 34943 ft 620 kts 84°
2026-05-06 23:37 37.83269 -80.31708 34953 ft 618 kts 84°
2026-05-06 23:38 37.83957 -80.20867 34939 ft 618 kts 84°
2026-05-06 23:38 37.84610 -80.10025 34955 ft 618 kts 84°
2026-05-06 23:39 37.85251 -79.99188 34946 ft 619 kts 84°
2026-05-06 23:39 37.85884 -79.88330 34962 ft 618 kts 85°
2026-05-06 23:40 37.86502 -79.77483 34968 ft 616 kts 84°
2026-05-06 23:40 37.87039 -79.66739 35051 ft 615 kts 86°
2026-05-06 23:41 37.87355 -79.55930 35098 ft 615 kts 87°
2026-05-06 23:41 37.87647 -79.45120 35087 ft 614 kts 87°
2026-05-06 23:42 37.87990 -79.34320 35076 ft 612 kts 85°
2026-05-06 23:42 37.89003 -79.23634 35008 ft 611 kts 78°
2026-05-06 23:43 37.90363 -79.13016 34935 ft 611 kts 78°
2026-05-06 23:43 37.91676 -79.02378 34862 ft 610 kts 78°
2026-05-06 23:44 37.92896 -78.91819 34889 ft 610 kts 79°
2026-05-06 23:44 37.94109 -78.81182 34862 ft 609 kts 79°
2026-05-06 23:45 37.95312 -78.70563 34872 ft 609 kts 78°
2026-05-06 23:45 37.96512 -78.59935 34865 ft 608 kts 79°
2026-05-06 23:46 37.97698 -78.49320 34872 ft 608 kts 79°
2026-05-06 23:46 37.98871 -78.38710 34862 ft 608 kts 79°
2026-05-06 23:47 38.00027 -78.28091 34878 ft 608 kts 79°
2026-05-06 23:47 38.01256 -78.17486 34882 ft 606 kts 73°
2026-05-06 23:47 38.02525 -78.12517 34894 ft 595 kts 58°
2026-05-06 23:48 38.04614 -78.08109 34924 ft 577 kts 47°
2026-05-06 23:48 38.09204 -77.99556 34910 ft 591 kts 48°
2026-05-06 23:49 38.13688 -77.90824 34890 ft 588 kts 49°
2026-05-06 23:49 38.18022 -77.82042 34877 ft 585 kts 50°
2026-05-06 23:50 38.22317 -77.73268 34857 ft 583 kts 50°
2026-05-06 23:50 38.28774 -77.60119 34870 ft 587 kts 50°
2026-05-06 23:51 38.33108 -77.51281 34868 ft 589 kts 50°
2026-05-06 23:51 38.37444 -77.42405 34862 ft 590 kts 50°
2026-05-06 23:52 38.41774 -77.33511 34870 ft 590 kts 50°
2026-05-06 23:52 38.46077 -77.24652 34868 ft 591 kts 50°
2026-05-06 23:53 38.50394 -77.15736 34872 ft 589 kts 50°
2026-05-06 23:53 38.54693 -77.06831 34868 ft 588 kts 50°
2026-05-06 23:54 38.58977 -76.97935 34879 ft 587 kts 50°
2026-05-06 23:54 38.63248 -76.89040 34896 ft 587 kts 50°
2026-05-06 23:55 38.67514 -76.80118 34858 ft 588 kts 50°
2026-05-06 23:55 38.71765 -76.71182 34857 ft 587 kts 50°
2026-05-06 23:56 38.76383 -76.62786 34861 ft 565 kts 32°
2026-05-06 23:56 38.79380 -76.59752 34886 ft 542 kts 23°
2026-05-06 23:56 38.82481 -76.56968 34896 ft 546 kts 22°
2026-05-06 23:57 38.88723 -76.51207 34902 ft 556 kts 25°
2026-05-06 23:57 38.94868 -76.45160 34886 ft 555 kts 26°
2026-05-06 23:58 39.00962 -76.39105 34945 ft 552 kts 25°
2026-05-06 23:58 39.04006 -76.36075 34659 ft 557 kts 27°
2026-05-06 23:58 39.07043 -76.32780 33371 ft 578 kts 31°
2026-05-06 23:59 39.10007 -76.29276 32137 ft 579 kts 33°
2026-05-06 23:59 39.12910 -76.25738 30882 ft 580 kts 34°
2026-05-06 23:59 39.15835 -76.22182 29924 ft 574 kts 33°
2026-05-06 23:59 39.18734 -76.18713 28982 ft 564 kts 33°
2026-05-07 00:00 39.21602 -76.15340 28171 ft 554 kts 32°
2026-05-07 00:00 39.24443 -76.12022 27367 ft 546 kts 33°
2026-05-07 00:00 39.27203 -76.08687 26686 ft 536 kts 33°
2026-05-07 00:00 39.29029 -76.06593 26410 ft 526 kts 31°
2026-05-07 00:01 39.32680 -76.02431 25830 ft 523 kts 32°
2026-05-07 00:01 39.35394 -75.99278 25406 ft 526 kts 33°
2026-05-07 00:01 39.38105 -75.96088 24934 ft 526 kts 33°
2026-05-07 00:01 39.40788 -75.92904 24523 ft 522 kts 33°
2026-05-07 00:02 39.43457 -75.89729 24035 ft 519 kts 33°
2026-05-07 00:02 39.46107 -75.86581 23594 ft 516 kts 33°
2026-05-07 00:02 39.48751 -75.83441 23087 ft 513 kts 33°
2026-05-07 00:02 39.51368 -75.80335 22610 ft 509 kts 33°
2026-05-07 00:03 39.53963 -75.77252 22137 ft 503 kts 34°
2026-05-07 00:03 39.56527 -75.74203 21724 ft 497 kts 34°
2026-05-07 00:03 39.59028 -75.71225 21344 ft 492 kts 34°
2026-05-07 00:03 39.61533 -75.68237 20908 ft 488 kts 34°
2026-05-07 00:04 39.64019 -75.65268 20483 ft 484 kts 35°
2026-05-07 00:04 39.66483 -75.62329 20073 ft 479 kts 35°
2026-05-07 00:04 39.68933 -75.59408 19641 ft 476 kts 35°
2026-05-07 00:04 39.71365 -75.56503 19169 ft 474 kts 36°
2026-05-07 00:05 39.73785 -75.53603 18691 ft 471 kts 36°
2026-05-07 00:05 39.76173 -75.50729 18215 ft 465 kts 37°
2026-05-07 00:05 39.78521 -75.47893 17697 ft 457 kts 37°
2026-05-07 00:05 39.80829 -75.45099 17328 ft 448 kts 37°
2026-05-07 00:06 39.83115 -75.42334 16890 ft 449 kts 37°
2026-05-07 00:06 39.85411 -75.39557 16454 ft 451 kts 37°
2026-05-07 00:06 39.87705 -75.36775 15999 ft 450 kts 38°
2026-05-07 00:06 39.89982 -75.34005 15556 ft 446 kts 38°
2026-05-07 00:07 39.92213 -75.31286 15130 ft 444 kts 38°
2026-05-07 00:07 39.94463 -75.28549 14661 ft 441 kts 38°
2026-05-07 00:07 39.96701 -75.25834 14264 ft 439 kts 38°
2026-05-07 00:07 39.98934 -75.23123 13807 ft 438 kts 39°
2026-05-07 00:08 40.01160 -75.20422 13320 ft 437 kts 39°
2026-05-07 00:08 40.03379 -75.17719 12858 ft 435 kts 39°
2026-05-07 00:08 40.05582 -75.15026 12416 ft 432 kts 39°
2026-05-07 00:08 40.07763 -75.12351 11968 ft 429 kts 39°
2026-05-07 00:09 40.09925 -75.09702 11536 ft 421 kts 39°
2026-05-07 00:09 40.12036 -75.07120 11120 ft 411 kts 39°
2026-05-07 00:09 40.14092 -75.04604 10724 ft 400 kts 39°
2026-05-07 00:09 40.16098 -75.02150 10384 ft 389 kts 38°
2026-05-07 00:10 40.18053 -74.99756 10022 ft 380 kts 38°
2026-05-07 00:10 40.19940 -74.97432 9783 ft 358 kts 38°
2026-05-07 00:10 40.21669 -74.95297 9414 ft 327 kts 37°
2026-05-07 00:10 40.23308 -74.93292 8720 ft 319 kts 37°
2026-05-07 00:11 40.24931 -74.91316 8311 ft 324 kts 37°
2026-05-07 00:11 40.26515 -74.89259 8096 ft 320 kts 41°
2026-05-07 00:11 40.28025 -74.87131 8002 ft 319 kts 42°
2026-05-07 00:11 40.29519 -74.85002 8007 ft 317 kts 42°
2026-05-07 00:12 40.31019 -74.82878 7996 ft 317 kts 42°
2026-05-07 00:12 40.32524 -74.80756 8001 ft 318 kts 41°
2026-05-07 00:12 40.34035 -74.78630 8016 ft 319 kts 41°
2026-05-07 00:12 40.35543 -74.76502 8001 ft 319 kts 42°
2026-05-07 00:13 40.37049 -74.74374 7828 ft 317 kts 42°
2026-05-07 00:13 40.38551 -74.72257 7551 ft 314 kts 41°
2026-05-07 00:13 40.40013 -74.70197 6943 ft 304 kts 42°
2026-05-07 00:13 40.41472 -74.68173 6419 ft 306 kts 38°
2026-05-07 00:14 40.43198 -74.66602 6231 ft 302 kts 21°
2026-05-07 00:14 40.45098 -74.65408 6039 ft 302 kts 18°
2026-05-07 00:14 40.46991 -74.64293 5977 ft 293 kts 17°
2026-05-07 00:14 40.48837 -74.63214 5972 ft 290 kts 17°
2026-05-07 00:15 40.50690 -74.62131 5990 ft 293 kts 17°
2026-05-07 00:15 40.52569 -74.61039 5993 ft 296 kts 17°
2026-05-07 00:15 40.54452 -74.59947 5988 ft 297 kts 17°
2026-05-07 00:15 40.56340 -74.58844 5982 ft 296 kts 17°
2026-05-07 00:16 40.58220 -74.57750 5986 ft 296 kts 17°
2026-05-07 00:16 40.60106 -74.56654 5983 ft 296 kts 17°
2026-05-07 00:16 40.61994 -74.55559 5976 ft 297 kts 17°
2026-05-07 00:16 40.63882 -74.54463 5978 ft 296 kts 17°
2026-05-07 00:17 40.65743 -74.53378 5977 ft 296 kts 17°
2026-05-07 00:17 40.67621 -74.52279 5979 ft 295 kts 17°
2026-05-07 00:17 40.69497 -74.51175 5980 ft 294 kts 17°
2026-05-07 00:17 40.71374 -74.50080 5980 ft 295 kts 17°
2026-05-07 00:18 40.73249 -74.48980 5996 ft 295 kts 17°
2026-05-07 00:18 40.75131 -74.47882 5991 ft 296 kts 17°
2026-05-07 00:18 40.77016 -74.46789 5990 ft 297 kts 17°
2026-05-07 00:18 40.78902 -74.45689 6009 ft 296 kts 17°
2026-05-07 00:19 40.80151 -74.44964 6005 ft 296 kts 17°
2026-05-07 00:19 40.82689 -74.43494 5847 ft 300 kts 17°
2026-05-07 00:19 40.83962 -74.42764 5617 ft 301 kts 17°
2026-05-07 00:19 40.85874 -74.41669 5232 ft 297 kts 17°
2026-05-07 00:20 40.87746 -74.40629 4995 ft 288 kts 17°
2026-05-07 00:20 40.89555 -74.39611 5007 ft 282 kts 17°
2026-05-07 00:20 40.91389 -74.38574 4996 ft 291 kts 17°
2026-05-07 00:20 40.93244 -74.37514 5009 ft 287 kts 18°
2026-05-07 00:21 40.94923 -74.36122 4992 ft 291 kts 40°
2026-05-07 00:21 40.96082 -74.33895 4996 ft 298 kts 62°
2026-05-07 00:21 40.96911 -74.31378 5016 ft 300 kts 66°
2026-05-07 00:21 40.97688 -74.28808 5007 ft 302 kts 66°
2026-05-07 00:22 40.98423 -74.26213 4991 ft 297 kts 73°
2026-05-07 00:22 40.98579 -74.23508 4911 ft 298 kts 98°
2026-05-07 00:22 40.98179 -74.20801 4595 ft 302 kts 105°
2026-05-07 00:22 40.97657 -74.18121 4159 ft 299 kts 106°
2026-05-07 00:23 40.97133 -74.15507 3991 ft 289 kts 107°
2026-05-07 00:23 40.96612 -74.12958 3990 ft 286 kts 108°
2026-05-07 00:23 40.95769 -74.10598 3937 ft 287 kts 131°
2026-05-07 00:23 40.94348 -74.08746 3663 ft 289 kts 144°
2026-05-07 00:24 40.92773 -74.07101 3216 ft 287 kts 146°
2026-05-07 00:24 40.91177 -74.05665 2977 ft 266 kts 160°
2026-05-07 00:24 40.89432 -74.05024 2927 ft 263 kts 174°
2026-05-07 00:24 40.87645 -74.04992 2575 ft 251 kts 197°
2026-05-07 00:25 40.86063 -74.05707 2499 ft 230 kts 207°
2026-05-07 00:25 40.84682 -74.06567 2486 ft 211 kts 210°
2026-05-07 00:25 40.83401 -74.07406 2510 ft 205 kts 210°
2026-05-07 00:25 40.82123 -74.08233 2500 ft 203 kts 210°
2026-05-07 00:26 40.80895 -74.09020 2409 ft 189 kts 211°
2026-05-07 00:26 40.79760 -74.09747 2143 ft 171 kts 210°
2026-05-07 00:26 40.78756 -74.10385 1941 ft 150 kts 210°
2026-05-07 00:26 40.77870 -74.10953 1745 ft 135 kts 210°
2026-05-07 00:27 40.77045 -74.11486 1609 ft 137 kts 210°
2026-05-07 00:27 40.76160 -74.12059 1421 ft 144 kts 209°
2026-05-07 00:27 40.75253 -74.12641 1200 ft 145 kts 209°
2026-05-07 00:27 40.74351 -74.13222 1022 ft 144 kts 206°
2026-05-07 00:28 40.73439 -74.13763 806 ft 142 kts 207°
2026-05-07 00:28 40.72551 -74.14349 593 ft 142 kts 204°
2026-05-07 00:28 40.71685 -74.14918 429 ft 138 kts 205°
2026-05-07 00:28 40.70829 -74.15472 270 ft 135 kts 204°
2026-05-07 00:29 40.69990 -74.16008 69 ft 134 kts 204°
2026-05-07 00:29 40.69190 -74.16504 29 ft 115 kts 207°
2026-05-07 00:30 40.68191 -74.17322 26 ft 17 kts 236°
2026-05-07 00:30 40.68177 -74.17349 32 ft 0 kts 235°
2026-05-07 00:30 40.68171 -74.17360 32 ft 3 kts 235°
2026-05-07 00:31 40.68152 -74.17402 27 ft 8 kts 249°
2026-05-07 00:31 40.68176 -74.17528 30 ft 17 kts 294°
2026-05-07 00:31 40.68210 -74.17626 26 ft 5 kts 294°
2026-05-07 00:31 40.68238 -74.17675 26 ft 13 kts 318°
2026-05-07 00:32 40.68253 -74.17767 27 ft 14 kts 216°
2026-05-07 00:32 40.68130 -74.17852 27 ft 22 kts 205°
2026-05-07 00:32 40.67991 -74.17939 27 ft 22 kts 205°
2026-05-07 00:32 40.67887 -74.18005 27 ft 13 kts 211°
2026-05-07 00:33 40.67893 -74.18109 26 ft 13 kts 307°
2026-05-07 00:33 40.67930 -74.18184 27 ft 9 kts 297°
2026-05-07 00:33 40.67946 -74.18228 27 ft 2 kts 295°
2026-05-07 00:33 40.67950 -74.18239 27 ft 0 kts 295°